This is the latest recevied weather packets stored in our database for station/object KK7RJD. If no packets are shown the sender has not sent any weather packets the latest 10 day(s).
| Time | Temp. | Humidity | Pressure | Rain* | Wind** | Luminosity | Snow |
|---|---|---|---|---|---|---|---|
| 1788135917 | 71° F | 42% | 760.3 mmHg | 0 in | - | 42 W/m² | - |
| 1788135613 | 71° F | 40% | 760.3 mmHg | 0 in | - | 47 W/m² | - |
| 1788135309 | 71° F | 41% | 760.2 mmHg | 0 in | - | 71 W/m² | - |
| 1788135005 | 72° F | 40% | 760.2 mmHg | 0 in | - | 56 W/m² | - |
| 1788134701 | 72° F | 45% | 760.3 mmHg | 0 in | - | 129 W/m² | - |
| 1788134399 | 72° F | 44% | 760.2 mmHg | 0 in | - | 149 W/m² | - |
| 1788134094 | 72° F | 43% | 760.2 mmHg | 0 in | - | 163 W/m² | - |
| 1788133789 | 72° F | 47% | 760.2 mmHg | 0 in | - | 178 W/m² | - |
| 1788133484 | 72° F | 42% | 760.2 mmHg | 0 in | - | 194 W/m² | - |
| 1788133180 | 72° F | 42% | 760.1 mmHg | 0 in | - | 212 W/m² | - |
| 1788132875 | 72° F | 40% | 760.1 mmHg | 0 in | - | 229 W/m² | - |
| 1788132571 | 73° F | 42% | 760 mmHg | 0 in | - | 246 W/m² | - |
| 1788132267 | 73° F | 46% | 760.2 mmHg | 0 in | - | 265 W/m² | - |
| 1788131963 | 73° F | 45% | 760.2 mmHg | 0 in | - | 282 W/m² | - |
| 1788131657 | 74° F | 45% | 760 mmHg | 0 in | - | 299 W/m² | - |
| 1788131357 | 74° F | 42% | 760 mmHg | 0 in | - | 319 W/m² | - |
| 1788131053 | 74° F | 43% | 760.1 mmHg | 0 in | - | 336 W/m² | - |
| 1788130752 | 74° F | 44% | 760 mmHg | 0 in | - | 348 W/m² | - |
| 1788130448 | 74° F | 47% | 760.2 mmHg | 0 in | - | 369 W/m² | - |
| 1788130142 | 74° F | 46% | 760 mmHg | 0 in | - | 387 W/m² | - |
| 1788129841 | 75° F | 49% | 760.1 mmHg | 0 in | - | 404 W/m² | - |
| 1788129538 | 75° F | 44% | 760 mmHg | 0 in | - | 423 W/m² | - |
| 1788129234 | 75° F | 41% | 760 mmHg | 0 in | - | 440 W/m² | - |
| 1788128933 | 75° F | 45% | 760 mmHg | 0 in | - | 459 W/m² | - |
| 1788128628 | 74° F | 47% | 760 mmHg | 0 in | - | 475 W/m² | - |
* Rain latest hour (hover to see other rain measurements)
** Current wind speed in m/s (hover to see current wind gust speed)